Home > Time Zones > World Clock > Weather > Iran > Rasht > Past weeks

Flag for Iran Weather past 2 weeks in Rasht, Iran

Now
54 °F

Sprinkles. Mostly cloudy.


Feels Like: 54 °F
Forecast: 52 / 76 °F
Wind: No wind

Location: Rasht Airport

Current Time: Oct 21, 2014 at 6:43:31 AM

Latest Report: Oct 21, 2014 at 6:00 AM


Visibility: 2 mi

Pressure: 30.07 "Hg

Humidity: 94%

Dew point: 52 °F

Location of RashtLocation

Historic Weather in Rasht — Graph

°F

Rasht temperature yesterday

Maximum temperature yesterday: 55 °F (at 6:00 AM)
Minimum temperature yesterday: 52 °F (at 3:30 PM)
Average temperature yesterday: 53 °F

Past Weeks' High & Low Weather Summary

 TemperatureHumidityPressure
High88 °F (Oct 19, 11:00 AM)100% (Oct 7, 3:30 AM)30.45 "Hg (Oct 7, 3:30 AM)
Low52 °F (Oct 20, 3:30 PM)24% (Oct 19, 12:30 PM)29.59 "Hg (Oct 19, 4:30 AM)
Average64 °F89%30.10 "Hg
* Reported Oct 6 5:30 AM — Oct 21 5:30 AM, Rasht, Weather by CustomWeather, © 2014

Note: Actual official high and low records may vary slightly from our data, if they occured in-between our weather recording intervals... More about our weather records

Advertising

Rasht weather history for previous 24 hours

 ConditionsComfort  
Time TempWeatherWind HumidityBarometerVisibility
5:30 AM
Oct 21
54 °FDrizzle. Mostly cloudy.No wind94%30.07 "Hg2 mi
4:30 AM52 °FDrizzle. Mostly cloudy.No wind100%30.09 "Hg2 mi
3:30 AM52 °FDrizzle. Mostly cloudy.No wind100%30.09 "Hg2 mi
2:30 AM52 °FDrizzle. Mostly cloudy.No wind100%30.12 "Hg2 mi
1:30 AM52 °FDrizzle. Mostly cloudy.No wind100%30.15 "Hg2 mi
11:30 PM
Oct 20
52 °FFog.No wind100%30.18 "Hg3 mi
10:30 PM52 °FLight rain. Mostly cloudy.No wind100%30.21 "Hg2 mi
9:30 PM52 °FLight rain. Mostly cloudy.No wind100%30.21 "Hg2 mi
8:30 PM52 °FMostly cloudy.No wind100%30.24 "Hg4 mi
8:00 PM52 °FFog.5 mph94%30.24 "Hg3 mi
7:30 PM52 °FFog.5 mph94%30.24 "Hg3 mi
7:00 PM52 °FLight rain. Mostly cloudy.5 mph100%30.24 "Hg2 mi
6:30 PM52 °FHeavy rain. Mostly cloudy.5 mph100%30.24 "Hg1 mi
6:00 PM52 °FLight rain. Mostly cloudy.5 mph94%30.27 "Hg2 mi
5:30 PM52 °FRain. Mostly cloudy.7 mph94%30.27 "Hg2 mi
5:00 PM52 °FHeavy rain. Mostly cloudy.5 mph100%30.27 "Hg1 mi
4:30 PM52 °FHeavy rain. Mostly cloudy.5 mph100%30.27 "Hg1 mi
4:00 PM52 °FRain. Mostly cloudy.9 mph100%30.27 "Hg1 mi
3:30 PM52 °FRain. Mostly cloudy.9 mph100%30.27 "Hg1 mi
3:00 PM54 °FHeavy rain. Mostly cloudy.9 mph100%30.27 "Hg1 mi
2:30 PM54 °FHeavy rain. Mostly cloudy.7 mph100%30.27 "Hg1 mi
2:00 PM54 °FHeavy rain. Mostly cloudy.5 mph100%30.27 "Hg1 mi
1:30 PM54 °FRain. Mostly cloudy.5 mph100%30.27 "Hg1 mi
1:00 PM54 °FHeavy rain. Mostly cloudy.7 mph100%30.27 "Hg1 mi
12:30 PM54 °FHeavy rain. Mostly cloudy.7 mph100%30.27 "Hg1 mi
12:00 PM54 °FHeavy rain. Mostly cloudy.5 mph100%30.27 "Hg1 mi
11:30 AM54 °FHeavy rain. Mostly cloudy.7 mph100%30.27 "Hg1 mi
11:00 AM54 °FRain. Mostly cloudy.7 mph100%30.27 "Hg1 mi
10:30 AM55 °FLight rain. Mostly cloudy.2 mph94%30.27 "Hg1 mi
10:00 AM55 °FRain. Mostly cloudy.2 mph94%30.27 "Hg1 mi
9:30 AM55 °FHeavy rain. Mostly cloudy.2 mph94%30.27 "Hg1 mi
9:00 AM54 °FRain. More clouds than sun.5 mph100%30.27 "Hg1 mi
8:30 AM54 °FRain. More clouds than sun.5 mph100%30.27 "Hg1 mi
6:30 AM54 °FRain. Mostly cloudy.No wind100%30.18 "Hg2 mi
6:00 AM55 °FRain. Mostly cloudy.5 mph94%30.12 "Hg2 mi
Weather by CustomWeather, © 2014

See weather overviewHow to use our weather pages